Flag for Germany Weather past 2 weeks in Göttingen, Lower Saxony, Germany

Now
57 °F

Scattered clouds.


Feels Like: 55 °F
Forecast: 45 / 68 °F
Wind: 10 mph from Northeast

Location: Kassel / Calden


UV Index: 3 (Moderate)

Visibility: N/A


Pressure: 29.95 "Hg

Humidity: 72%

Dew point: 48 °F

Location of GöttingenLocation

Historic Weather in Göttingen

°F

Göttingen temperature yesterday

Maximum temperature yesterday: 50 °F (at 3:20 PM)
Minimum temperature yesterday: 41 °F (at 6:50 AM)
Average temperature yesterday: 45 °F

Past Weeks' High & Low Weather Summary

 TemperatureHumidityPressure
High68 °F (Apr 7, 2:50 PM)100% (Apr 5, 6:50 AM)30.45 "Hg (Apr 5, 6:50 AM)
Low30 °F (Apr 16, 5:50 AM)33% (Apr 17, 6:20 PM)29.77 "Hg (Apr 8, 6:20 AM)
Average50 °F72%30.06 "Hg
* Reported Apr 4 7:20 PM — Apr 19 7:50 PM, Göttingen, Weather by CustomWeather, © 2014

Note: Actual official high and low records may vary slightly from our data, if they occured in-between our weather recording intervals... More about our weather records

Advertising

Historic Weather Conditions — Data for Previous 24 hours

 ConditionsComfort  
Time TempWeatherWind HumidityBarometerVisibility
7:50 PM
Apr 19
57 °FScattered clouds.10 mph72%29.95 "HgN/A
7:20 PM57 °FBroken clouds.12 mph72%29.95 "HgN/A
6:50 PM57 °FBroken clouds.10 mph72%29.95 "HgN/A
6:20 PM57 °FScattered clouds.12 mph67%29.95 "HgN/A
5:50 PM59 °FScattered clouds.10 mph63%29.95 "HgN/A
5:20 PM59 °FPassing clouds.9 mph63%29.95 "HgN/A
4:50 PM59 °FPassing clouds.9 mph59%29.95 "HgN/A
4:20 PM59 °FPassing clouds.10 mph59%29.98 "HgN/A
3:50 PM57 °FScattered clouds.10 mph59%29.98 "HgN/A
3:20 PM57 °FScattered clouds.10 mph59%29.98 "HgN/A
2:50 PM57 °FPartly sunny.13 mph59%30.01 "HgN/A
2:20 PM55 °FPartly sunny.10 mph63%30.01 "HgN/A
1:50 PM55 °FScattered clouds.12 mph59%30.04 "HgN/A
1:20 PM54 °FScattered clouds.9 mph63%30.04 "HgN/A
12:50 PM52 °FScattered clouds.10 mph67%30.04 "HgN/A
12:20 PM50 °FScattered clouds.10 mph67%30.07 "HgN/A
11:50 AM50 °FScattered clouds.12 mph67%30.07 "HgN/A
11:20 AM48 °FPassing clouds.12 mph66%30.07 "HgN/A
10:50 AM48 °FScattered clouds.12 mph71%30.07 "HgN/A
10:20 AM46 °FBroken clouds.10 mph76%30.07 "HgN/A
9:50 AM46 °FBroken clouds.5 mph76%30.07 "HgN/A
9:20 AM45 °FScattered clouds.3 mph81%30.07 "HgN/A
8:50 AM43 °FScattered clouds.5 mph81%30.07 "HgN/A
8:20 AM41 °FScattered clouds.5 mph87%30.07 "HgN/A
7:50 AM41 °FPassing clouds.1 mph93%30.07 "HgN/A
7:20 AM37 °FScattered clouds.2 mph100%30.07 "Hg6 mi
6:50 AM37 °FLow clouds.5 mph100%30.04 "Hg4 mi
6:20 AM39 °FLow clouds.2 mph93%30.01 "Hg4 mi
5:50 AM37 °FPassing clouds.1 mph100%30.01 "Hg4 mi
9:50 PM
Apr 18
43 °FClear.7 mph81%29.92 "Hg10 mi
9:20 PM43 °FSunny.8 mph81%29.92 "Hg10 mi
8:50 PM43 °FPassing clouds.9 mph87%29.92 "HgN/A
8:20 PM45 °FBroken clouds.8 mph76%29.92 "HgN/A
Weather by CustomWeather, © 2014

See weather overview